This is the latest recevied weather packets stored in our database for station/object OH6HPS. If no packets are shown the sender has not sent any weather packets the latest 10 day(s).
| Time | Temp. | Humidity | Pressure | Rain* | Wind** | Luminosity | Snow |
|---|---|---|---|---|---|---|---|
| 1777581303 | 6.67° C | 81% | 1021.2 hPa | 0 mm | - | 0 W/m² | - |
| 1777580704 | 7.22° C | 80% | 1021.2 hPa | 0 mm | - | 0 W/m² | - |
| 1777580102 | 7.22° C | 79% | 1021.2 hPa | 0 mm | - | 0 W/m² | - |
| 1777579503 | 7.78° C | 77% | 1021.1 hPa | 0 mm | - | 0 W/m² | - |
| 1777578904 | 8.33° C | 76% | 1021 hPa | 0 mm | - | 0 W/m² | - |
| 1777578306 | 8.89° C | 75% | 1021.1 hPa | 0 mm | - | 0 W/m² | - |
| 1777577704 | 8.89° C | 74% | 1021 hPa | 0 mm | - | 0 W/m² | - |
| 1777577103 | 9.44° C | 73% | 1021.1 hPa | 0 mm | - | 0 W/m² | - |
| 1777576503 | 10° C | 72% | 1021 hPa | 0 mm | - | 0 W/m² | - |
| 1777575903 | 10.56° C | 70% | 1021 hPa | 0 mm | - | 0 W/m² | - |
| 1777575302 | 10.56° C | 68% | 1020.9 hPa | 0 mm | - | 0 W/m² | - |
| 1777574705 | 11.11° C | 67% | 1020.8 hPa | 0 mm | - | 0 W/m² | - |
| 1777574102 | 11.67° C | 66% | 1020.8 hPa | 0 mm | - | 0 W/m² | - |
| 1777573503 | 12.22° C | 65% | 1020.7 hPa | 0 mm | - | 0 W/m² | - |
| 1777572902 | 12.78° C | 63% | 1020.7 hPa | 0 mm | - | 5 W/m² | - |
| 1777572303 | 12.78° C | 62% | 1020.7 hPa | 0 mm | - | 7 W/m² | - |
| 1777571702 | 13.33° C | 61% | 1020.6 hPa | 0 mm | - | 9 W/m² | - |
| 1777571102 | 13.33° C | 60% | 1020.6 hPa | 0 mm | - | 11 W/m² | - |
| 1777570504 | 13.89° C | 60% | 1020.5 hPa | 0 mm | - | 12 W/m² | - |
| 1777569903 | 13.89° C | 59% | 1020.4 hPa | 0 mm | - | 14 W/m² | - |
| 1777569303 | 13.89° C | 59% | 1020.3 hPa | 0 mm | - | 18 W/m² | - |
| 1777568702 | 14.44° C | 58% | 1020.3 hPa | 0 mm | - | 25 W/m² | - |
| 1777568105 | 14.44° C | 57% | 1020.2 hPa | 0 mm | - | 28 W/m² | - |
| 1777567502 | 14.44° C | 56% | 1020.2 hPa | 0 mm | - | 30 W/m² | - |
| 1777566903 | 15° C | 55% | 1020.2 hPa | 0 mm | - | 34 W/m² | - |
* Rain latest hour (hover to see other rain measurements)
** Current wind speed in m/s (hover to see current wind gust speed)